Wind_Speed
80 85 92 99 105 108 108 104 98 93 88 85 84 84 85 87 90 94 99 103 107 110 111 109 106 103 100 97 93 89 86 82 78 75 71 69 67 64 61 58 55 52 52
85 91 98 103 104 102 96 89 85 82 81 81 81 81 81 82 83 85 88 92 96 101 106 109 109 108 105 103 100 96 92 88 84 80 76 73 71 69 66 62 58 54 52
90 96 101 102 98 91 85 82 81 81 81 81 81 80 80 80 81 82 84 86 88 92 97 103 107 109 109 107 105 102 99 95 91 86 82 78 75 73 70 66 62 58 55
94 99 100 96 89 83 80 80 80 80 79 79 79 78 78 78 79 80 81 83 85 88 91 96 101 106 109 110 110 107 104 101 97 92 88 84 79 76 74 71 66 62 59
96 98 95 88 82 79 78 79 78 77 77 75 72 69 68 69 71 74 77 80 82 84 88 92 97 103 108 111 113 112 109 106 103 98 94 89 84 81 78 75 71 67 63
96 95 89 82 79 77 77 76 75 75 74 71 65 61 59 60 62 65 70 75 79 82 85 90 95 101 107 111 114 115 114 112 108 104 100 95 90 86 82 79 76 71 67
94 91 83 78 76 76 75 75 76 73 69 66 61 56 52 52 54 57 62 68 74 79 83 87 93 98 104 109 114 117 118 116 114 110 105 100 95 90 87 83 80 76 71
92 86 79 76 75 74 73 75 75 71 65 62 59 55 51 45 44 47 53 60 69 76 81 85 90 95 100 107 113 118 121 120 118 115 111 106 101 95 91 87 84 80 75
88 82 76 75 74 74 74 75 74 68 62 56 54 53 51 46 38 34 41 51 62 72 79 82 85 90 95 103 110 117 122 124 123 120 116 111 106 100 95 91 88 84 79
84 79 75 74 73 73 74 75 71 65 60 53 48 46 45 45 40 28 27 37 52 66 76 80 82 85 90 97 105 113 120 125 125 124 120 115 110 105 99 95 92 88 83
81 76 73 73 72 73 74 73 68 62 57 51 46 42 38 36 36 30 20 24 39 56 70 77 78 79 83 89 97 106 115 122 126 126 124 119 115 109 104 99 96 92 88
78 74 72 72 72 72 73 71 66 61 54 48 43 39 36 33 30 28 21 16 26 44 60 71 75 76 78 82 88 96 107 116 123 126 125 122 118 114 108 103 99 95 91
76 72 71 71 71 72 73 70 64 59 52 45 40 36 33 30 28 25 21 15 17 31 49 64 72 74 76 78 82 87 97 107 116 123 126 124 121 117 111 106 102 98 94
75 71 70 70 70 72 72 69 64 59 51 44 39 35 31 28 25 23 21 16 14 23 39 55 67 72 74 75 76 79 87 97 107 117 124 125 123 119 115 109 105 101 97
74 70 70 70 70 71 71 68 63 58 50 43 38 34 30 27 24 22 20 17 14 19 31 47 60 68 71 72 71 72 77 86 97 109 119 123 123 121 117 112 108 104 99
73 69 69 69 69 70 69 67 63 58 50 43 37 33 29 26 22 21 19 17 15 17 26 40 54 64 68 69 67 66 67 75 87 100 112 120 122 121 119 115 110 106 102
72 69 68 68 68 69 68 66 62 57 49 42 37 33 29 25 21 19 18 17 16 17 23 34 47 58 64 66 65 62 61 66 78 91 105 115 120 121 120 117 113 108 104
72 68 67 67 67 68 67 65 61 55 48 42 37 34 30 26 22 19 17 16 15 16 20 29 40 52 60 63 62 60 58 60 69 83 97 110 117 120 121 118 115 110 106
71 67 66 66 66 67 66 64 60 54 47 42 38 34 31 27 23 20 16 15 14 15 17 24 34 45 54 59 60 59 56 56 62 75 90 104 113 118 120 119 116 112 108
70 66 65 65 65 66 65 63 59 53 46 41 38 35 32 28 24 21 17 14 12 13 15 20 29 39 47 54 57 56 55 53 57 69 83 98 109 115 118 118 116 112 108
69 65 64 64 63 64 64 62 58 54 47 41 38 35 32 29 25 22 19 15 11 10 12 16 24 33 41 48 52 53 52 51 53 63 77 92 104 111 116 117 116 113 108
69 64 63 62 62 62 62 62 58 54 47 41 37 35 32 29 26 24 21 17 13 9 8 12 19 27 35 41 47 49 50 50 51 60 73 86 100 108 113 115 115 112 108
69 64 62 61 60 60 60 60 57 52 47 40 35 33 31 29 27 25 22 19 15 11 6 8 15 22 29 36 41 44 46 46 49 56 68 81 95 103 110 113 113 111 107
69 64 60 59 59 59 58 58 57 52 46 40 34 31 29 28 27 25 23 20 17 12 7 4 10 17 24 31 36 40 42 43 47 54 65 77 90 99 106 110 111 110 105
70 64 60 58 58 58 57 56 55 53 47 40 34 30 28 27 26 25 23 21 18 14 9 3 6 13 21 27 32 36 38 41 46 53 63 74 85 95 102 107 109 108 104
70 64 59 57 56 56 56 55 53 52 47 40 35 31 28 26 26 25 24 22 19 16 11 5 2 9 16 23 29 33 36 41 46 53 62 72 81 92 99 104 105 106 103
Wind_Direction
310 309 308 306 304 301 299 297 295 293 290 286 282 278 274 270 266 263 259 256 254 251 248 245 242 239 237 235 234 232 231 231 231 230 229 229 228 228 228 229 227 226 224
313 312 310 308 306 305 303 302 300 297 294 290 286 281 276 271 266 261 256 252 249 247 245 243 240 238 235 234 232 231 230 229 229 229 228 227 226 226 226 227 227 225 224
316 314 313 311 310 309 308 306 304 301 298 294 290 284 279 273 267 262 256 251 246 242 240 238 237 235 233 231 230 228 228 227 227 227 227 226 225 224 224 225 226 225 223
318 317 316 315 314 313 311 309 308 305 302 298 293 288 281 274 267 261 255 250 245 240 236 233 232 231 229 228 227 226 225 225 225 225 225 225 224 223 222 223 224 224 223
321 320 320 319 318 316 315 313 312 309 307 303 298 292 286 278 270 261 253 248 243 238 233 230 227 226 225 224 224 223 223 223 223 222 223 223 222 221 220 220 221 222 222
324 324 323 322 321 320 319 318 316 314 312 308 304 299 292 284 274 263 253 246 240 236 231 227 225 223 222 221 220 220 220 220 220 220 220 220 220 219 218 218 219 220 221
328 327 326 325 324 324 323 322 321 319 316 313 310 306 301 294 282 267 255 244 237 233 229 226 223 221 220 218 217 217 217 217 218 218 218 218 218 218 217 216 216 218 219
331 330 329 328 328 327 326 326 325 323 321 319 316 314 311 304 292 277 257 243 234 230 227 225 222 220 218 217 216 215 215 215 215 215 216 216 216 216 215 214 214 215 217
333 332 332 331 331 330 330 330 329 327 324 322 320 319 319 318 310 290 264 244 232 226 224 223 221 219 217 216 215 214 213 213 213 213 214 214 215 214 214 213 213 213 215
336 335 334 334 334 334 334 333 332 330 327 324 322 320 322 325 326 315 279 249 232 224 221 221 220 218 216 216 216 215 213 212 212 212 212 212 213 212 212 212 211 212 213
338 337 337 337 337 337 337 336 335 333 329 325 322 321 321 325 329 331 310 260 235 224 220 218 218 217 216 216 217 216 215 213 211 210 210 210 211 211 210 210 210 210 211
340 339 340 340 340 340 340 339 338 336 331 326 323 320 320 322 327 330 329 290 244 227 219 216 216 216 216 216 217 217 216 214 211 210 209 209 209 209 209 209 209 209 210
343 342 342 342 343 343 343 342 341 339 335 329 324 319 317 317 319 322 323 308 259 231 220 215 214 215 215 215 216 217 217 215 212 210 208 207 208 208 208 208 208 208 209
345 344 345 345 345 345 345 345 345 343 339 333 328 321 315 312 310 312 314 308 270 235 221 215 213 214 215 215 216 217 217 216 214 211 208 207 206 206 206 206 206 207 208
347 347 347 347 348 348 348 348 347 346 343 339 333 326 319 312 305 302 302 300 280 241 223 216 214 213 214 214 215 217 217 217 215 212 209 206 205 205 205 204 205 206 207
349 349 349 349 350 350 351 351 350 350 348 344 340 334 328 319 308 298 294 290 278 248 225 218 215 214 213 214 215 216 217 217 215 212 209 206 204 204 203 203 204 205 206
350 350 351 351 352 353 353 354 353 353 352 350 347 344 339 332 319 303 293 285 274 253 230 220 217 214 213 213 214 215 217 217 215 213 210 207 204 203 202 202 202 204 204
352 352 352 352 353 354 355 356 356 356 356 356 355 353 349 344 334 318 300 287 274 257 236 223 219 216 214 213 213 215 217 217 215 212 210 207 204 202 202 201 201 202 203
353 353 353 354 355 356 357 358 358 358 359 360 360 358 355 351 344 335 319 298 279 261 241 225 220 217 215 213 213 214 216 217 215 212 209 207 204 202 201 200 201 201 203
355 354 354 355 356 357 359 359 359 0 2 2 2 1 359 357 353 347 337 321 294 269 245 226 219 217 215 214 214 215 216 217 215 211 209 207 204 202 200 200 200 201 202
356 355 355 356 357 359 359 360 1 3 4 3 3 3 3 2 359 356 350 342 324 289 254 229 218 216 215 214 214 215 216 217 215 211 207 205 204 202 200 199 200 200 201
357 356 356 357 358 359 0 1 2 4 4 4 4 5 6 6 4 1 357 352 343 322 271 233 217 213 212 213 214 215 216 216 214 210 206 204 203 201 200 199 199 200 201
358 357 357 358 359 0 1 2 3 4 4 4 4 5 6 7 7 6 3 359 352 342 313 241 217 210 209 211 212 213 214 214 212 208 204 202 201 201 200 199 199 200 201
359 358 358 359 0 1 2 3 4 4 5 5 5 6 7 7 8 8 7 5 2 354 342 272 218 207 205 207 208 211 211 210 208 204 201 199 200 200 200 199 199 200 201
359 359 359 -0 1 2 3 4 5 5 5 5 6 6 7 7 8 9 8 7 7 5 358 328 222 205 201 200 202 204 205 204 200 198 196 196 197 198 199 199 200 200 201
359 360 360 1 2 3 3 4 5 6 6 6 6 6 6 7 8 9 9 8 8 8 7 0 219 202 197 195 195 196 198 196 194 192 192 192 195 196 198 198 200 200 200
Height
5710 5697 5681 5663 5643 5623 5603 5587 5573 5561 5551 5544 5537 5532 5529 5528 5529 5533 5542 5552 5564 5579 5596 5613 5629 5645 5660 5674 5688 5702 5715 5727 5738 5750 5761 5771 5781 5790 5799 5806 5813 5820 5826
5691 5674 5655 5635 5613 5592 5573 5557 5544 5533 5523 5515 5508 5502 5498 5496 5497 5499 5505 5515 5526 5540 5556 5574 5592 5610 5628 5645 5661 5677 5691 5705 5718 5731 5743 5755 5766 5777 5786 5795 5803 5810 5817
5669 5650 5628 5605 5584 5564 5548 5534 5520 5508 5497 5486 5478 5471 5466 5463 5464 5467 5472 5480 5491 5504 5519 5536 5554 5573 5593 5612 5631 5649 5666 5682 5697 5711 5725 5738 5750 5762 5773 5783 5792 5800 5807
5646 5625 5602 5579 5559 5542 5526 5512 5498 5484 5471 5459 5448 5440 5433 5430 5430 5433 5438 5446 5457 5471 5485 5500 5517 5536 5557 5578 5599 5619 5638 5656 5673 5689 5705 5719 5733 5746 5758 5770 5780 5789 5797
5624 5601 5578 5557 5539 5522 5506 5491 5476 5460 5446 5433 5421 5411 5403 5397 5396 5399 5405 5413 5423 5437 5452 5467 5482 5500 5520 5543 5566 5588 5609 5630 5649 5667 5683 5699 5714 5729 5742 5755 5767 5777 5786
5603 5580 5558 5538 5521 5504 5488 5472 5456 5441 5423 5407 5397 5388 5379 5371 5367 5368 5372 5381 5393 5406 5420 5435 5450 5466 5487 5510 5534 5557 5580 5602 5622 5642 5661 5678 5695 5710 5725 5739 5752 5764 5774
5584 5561 5540 5522 5504 5488 5470 5453 5437 5421 5404 5387 5376 5367 5360 5349 5341 5339 5343 5353 5365 5377 5390 5405 5420 5437 5457 5480 5503 5527 5551 5574 5595 5617 5637 5656 5674 5692 5708 5723 5737 5750 5762
5566 5544 5525 5507 5490 5473 5455 5437 5419 5402 5387 5371 5357 5347 5340 5334 5324 5316 5318 5325 5337 5349 5363 5377 5393 5413 5433 5454 5475 5498 5521 5545 5568 5591 5613 5633 5653 5672 5690 5706 5722 5736 5749
5550 5529 5511 5493 5476 5458 5441 5423 5404 5386 5373 5360 5345 5333 5322 5314 5309 5302 5298 5303 5312 5325 5340 5357 5374 5392 5411 5429 5448 5469 5493 5516 5540 5564 5588 5610 5632 5652 5671 5689 5705 5721 5735
5536 5516 5498 5481 5464 5446 5428 5409 5390 5373 5358 5348 5338 5327 5316 5305 5296 5291 5287 5288 5294 5306 5320 5336 5354 5372 5391 5409 5426 5444 5465 5488 5513 5538 5563 5587 5609 5631 5652 5671 5689 5705 5721
5525 5505 5488 5470 5453 5435 5417 5398 5379 5363 5348 5337 5328 5320 5312 5303 5294 5285 5281 5279 5283 5291 5304 5321 5338 5357 5374 5390 5405 5421 5440 5462 5486 5512 5538 5563 5587 5610 5632 5652 5672 5689 5706
5515 5496 5479 5461 5443 5425 5407 5388 5370 5354 5340 5329 5319 5312 5305 5298 5291 5284 5279 5276 5276 5281 5292 5307 5324 5340 5355 5369 5385 5400 5417 5438 5462 5488 5515 5540 5565 5589 5613 5635 5655 5673 5691
5507 5489 5471 5453 5436 5417 5399 5380 5363 5347 5333 5322 5313 5306 5299 5293 5288 5282 5277 5273 5272 5275 5282 5295 5309 5323 5337 5351 5366 5381 5398 5418 5441 5466 5492 5518 5543 5569 5594 5618 5639 5658 5676
5499 5481 5464 5446 5429 5411 5392 5373 5356 5341 5327 5316 5307 5300 5294 5289 5284 5280 5275 5272 5270 5271 5276 5285 5296 5310 5324 5339 5354 5369 5385 5402 5423 5445 5470 5496 5523 5549 5575 5599 5622 5642 5661
5492 5474 5457 5440 5423 5405 5386 5368 5351 5336 5322 5311 5302 5294 5288 5284 5280 5276 5273 5269 5268 5268 5271 5277 5288 5300 5314 5329 5344 5359 5374 5389 5407 5427 5451 5477 5504 5531 5557 5581 5604 5626 5647
5485 5468 5452 5435 5418 5401 5382 5364 5347 5332 5318 5307 5298 5291 5284 5279 5275 5272 5269 5267 5265 5265 5267 5272 5280 5291 5305 5320 5335 5350 5363 5377 5393 5412 5435 5460 5486 5512 5538 5564 5587 5610 5631
5480 5464 5447 5431 5415 5397 5379 5362 5345 5330 5317 5306 5296 5288 5281 5275 5271 5268 5266 5264 5263 5262 5264 5268 5274 5284 5297 5312 5327 5341 5353 5366 5381 5399 5419 5443 5468 5494 5521 5546 5571 5594 5616
5476 5459 5444 5428 5411 5395 5378 5361 5345 5331 5318 5307 5297 5288 5280 5274 5269 5265 5263 5261 5260 5260 5261 5265 5270 5280 5291 5305 5319 5332 5345 5356 5370 5386 5405 5428 5452 5478 5504 5531 5555 5579 5602
5473 5456 5441 5425 5410 5394 5377 5361 5346 5332 5319 5307 5298 5289 5281 5274 5268 5264 5261 5259 5258 5258 5259 5262 5267 5275 5286 5298 5312 5324 5336 5348 5360 5375 5392 5414 5439 5464 5490 5516 5541 5565 5589
5470 5454 5439 5423 5408 5392 5376 5361 5348 5334 5320 5309 5299 5291 5282 5275 5269 5265 5261 5258 5256 5256 5256 5259 5263 5271 5280 5292 5305 5317 5329 5340 5352 5365 5382 5403 5427 5451 5477 5504 5531 5554 5577
5468 5452 5437 5422 5406 5391 5377 5363 5349 5334 5321 5311 5302 5293 5285 5277 5271 5266 5261 5258 5255 5254 5255 5257 5261 5267 5276 5286 5298 5310 5322 5333 5344 5356 5372 5393 5418 5443 5467 5492 5516 5540 5564
5467 5451 5436 5421 5406 5391 5377 5362 5348 5335 5324 5313 5304 5296 5288 5281 5274 5268 5263 5259 5256 5254 5254 5255 5258 5264 5272 5281 5292 5303 5314 5325 5337 5348 5365 5385 5406 5431 5456 5482 5507 5530 5553
5466 5451 5436 5421 5407 5393 5379 5364 5350 5338 5327 5317 5308 5300 5292 5285 5278 5272 5267 5262 5258 5255 5254 5255 5257 5261 5268 5276 5286 5298 5308 5319 5330 5342 5357 5378 5399 5424 5448 5473 5497 5520 5542
5466 5451 5436 5422 5408 5394 5380 5367 5354 5342 5330 5320 5311 5303 5296 5289 5282 5276 5271 5266 5261 5258 5256 5255 5256 5260 5265 5272 5281 5291 5302 5313 5323 5335 5351 5372 5393 5418 5441 5465 5487 5510 5533
5465 5450 5436 5422 5408 5395 5382 5369 5357 5345 5334 5324 5314 5307 5299 5292 5286 5279 5274 5269 5264 5261 5258 5257 5257 5259 5263 5269 5277 5286 5297 5307 5318 5331 5346 5366 5387 5411 5433 5457 5479 5502 5524
5464 5449 5435 5421 5408 5396 5384 5372 5360 5349 5338 5327 5317 5309 5302 5296 5289 5283 5277 5272 5268 5264 5261 5259 5259 5260 5263 5268 5275 5283 5293 5303 5314 5327 5343 5362 5381 5403 5427 5449 5472 5494 5517